Flag for India Weather past 2 weeks in Jalpaiguri, West Bengal, India

84 °F

Scattered clouds.

Feels Like: 86 °F
Forecast: 65 / 84 °F
Wind: 6 mph from Southeast

Location: Lucknow / Amausi

Current Time: Nov 29, 2015 at 3:05:10 PM

Latest Report: Nov 29, 2015 at 2:30 PM

Visibility: 1 mi

Pressure: 29.98 "Hg

Humidity: 51%

Dew point: 64 °F

Location of JalpaiguriLocation

Historic Weather in Jalpaiguri — Graph


Jalpaiguri temperature yesterday

Maximum temperature yesterday: 82 °F (at 2:00 PM)
Minimum temperature yesterday: 64 °F (at 6:00 AM)
Average temperature yesterday: 72 °F

Past Weeks' High & Low Weather Summary

High90 °F (Nov 15, 1:30 PM)94% (Nov 27, 4:00 AM)30.09 "Hg (Nov 27, 4:00 AM)
Low54 °F (Nov 26, 7:00 AM)23% (Nov 25, 2:30 PM)29.77 "Hg (Nov 27, 3:00 PM)
Average73 °F57%29.93 "Hg
* Reported Nov 14 1:30 PM — Nov 29 1:30 PM, Jalpaiguri, Weather by CustomWeather, © 2015

Note: Actual official high and low records may vary slightly from our data, if they occured in-between our weather recording intervals... More about our weather records


Jalpaiguri weather history for previous 24 hours

Time TempWeatherWind HumidityBarometerVisibility
1:30 PM
Sun, Nov 29
82 °FBroken clouds.7 mph55%30.01 "Hg1 mi
1:00 PM81 °FBroken clouds.7 mph58%30.01 "Hg1 mi
12:30 PM79 °FBroken clouds.9 mph61%30.04 "Hg1 mi
12:00 PM79 °FBroken clouds.7 mph61%30.07 "Hg1 mi
11:30 AM79 °FBroken clouds.7 mph61%30.09 "Hg1 mi
9:30 AM72 °FBroken clouds.9 mph73%30.09 "Hg1 mi
9:00 AM72 °FBroken clouds.7 mph73%30.09 "Hg1 mi
8:30 AM70 °FFog.7 mph78%30.07 "Hg1 mi
8:00 AM68 °FFog.6 mph83%30.07 "Hg1 mi
7:30 AM68 °FFog.5 mph83%30.07 "Hg1 mi
6:00 AM70 °FFog.5 mph78%30.04 "Hg1 mi
5:00 AM70 °FPartly cloudy.5 mph73%30.01 "Hg1 mi
4:00 AM70 °FPartly cloudy.5 mph73%30.01 "Hg1 mi
3:00 AM70 °FPartly cloudy.5 mph73%30.01 "Hg1 mi
2:00 AM70 °FPartly cloudy.6 mph73%30.04 "Hg1 mi
1:00 AM72 °FPartly cloudy.5 mph69%30.04 "Hg1 mi
12:00 AM72 °FPartly cloudy.6 mph69%30.04 "Hg1 mi
11:00 PM
Sat, Nov 28
72 °FPartly cloudy.5 mph69%30.04 "Hg1 mi
10:00 PM72 °FPartly cloudy.No wind69%30.04 "Hg1 mi
9:00 PM72 °FPartly cloudy.No wind69%30.01 "Hg1 mi
8:30 PM73 °FPartly cloudy.No wind65%30.01 "Hg1 mi
8:00 PM73 °FPartly cloudy.2 mph65%29.98 "Hg1 mi
7:30 PM75 °FPartly cloudy.2 mph61%29.98 "Hg1 mi
7:00 PM75 °FPartly cloudy.2 mph61%29.98 "Hg1 mi
6:30 PM75 °FPartly cloudy.2 mph61%29.95 "Hg1 mi
6:00 PM77 °FPartly cloudy.2 mph61%29.95 "Hg1 mi
5:00 PM77 °FBroken clouds.5 mph51%29.95 "Hg1 mi
4:30 PM79 °FBroken clouds.7 mph48%29.95 "Hg2 mi
4:00 PM81 °FBroken clouds.7 mph45%29.95 "Hg2 mi
3:00 PM82 °FBroken clouds.9 mph42%29.95 "Hg2 mi
Weather by CustomWeather, © 2015

See weather overviewHow to use our weather pages